This is the latest recevied weather packets stored in our database for station/object LZ1NAG-10. If no packets are shown the sender has not sent any weather packets the latest 10 day(s).
| Time | Temp. | Humidity | Pressure | Rain* | Wind** | Luminosity | Snow |
|---|---|---|---|---|---|---|---|
| 1777887167 | 26.67° C | 46% | 1022.7 hPa | - | - | - | - |
| 1777886266 | 26.11° C | 45% | 1023 hPa | - | - | - | - |
| 1777885366 | 25° C | 46% | 1023.1 hPa | - | - | - | - |
| 1777884466 | 25° C | 45% | 1023.2 hPa | - | - | - | - |
| 1777883565 | 24.44° C | 45% | 1023.2 hPa | - | - | - | - |
| 1777882665 | 24.44° C | 44% | 1022.8 hPa | - | - | - | - |
| 1777881764 | 24.44° C | 44% | 1023.3 hPa | - | - | - | - |
| 1777880864 | 22.78° C | 44% | 1023.2 hPa | - | - | - | - |
| 1777879964 | 22.78° C | 43% | 1023.1 hPa | - | - | - | - |
| 1777879064 | 21.67° C | 44% | 1023 hPa | - | - | - | - |
| 1777878164 | 23.33° C | 43% | 1023.2 hPa | - | - | - | - |
| 1777877263 | 22.22° C | 42% | 1023.1 hPa | - | - | - | - |
| 1777876363 | 21.11° C | 42% | 1023.4 hPa | - | - | - | - |
| 1777875463 | 20° C | 43% | 1023.6 hPa | - | - | - | - |
| 1777874563 | 18.33° C | 43% | 1023.3 hPa | - | - | - | - |
| 1777873663 | 18.33° C | 42% | 1023.1 hPa | - | - | - | - |
| 1777872763 | 16.67° C | 41% | 1023.4 hPa | - | - | - | - |
| 1777871863 | 12.78° C | 43% | 1023.7 hPa | - | - | - | - |
| 1777870961 | 2.22° C | 53% | 1023.5 hPa | - | - | - | - |
| 1777870061 | 1.11° C | 54% | 1023.5 hPa | - | - | - | - |
| 1777869161 | 0° C | 54% | 1023.6 hPa | - | - | - | - |
| 1777868261 | -1.11° C | 54% | 1023.6 hPa | - | - | - | - |
| 1777867360 | -1.67° C | 54% | 1023.7 hPa | - | - | - | - |
| 1777866460 | -2.22° C | 55% | 1023.7 hPa | - | - | - | - |
| 1777865560 | -2.78° C | 55% | 1023.6 hPa | - | - | - | - |
* Rain since midnight (hover to see other rain measurements)
** Current wind speed in m/s (hover to see current wind gust speed)